Showing default

COSMOS 249, 3504

Orbit data source: Space-Track

COSMOS 249, 3504 is a payload satellite owned by PKO (CIS) in LEO that was launched on Sun, 20 Oct 1968 UTC via a TSIKLON-2A launch vehicle from the Tyuratam Missile And Space Complex (TTMTR). Payload-class satellites include a variety of spacecraft equipped with specific instruments for various scientific and technological missions. These include communications satellites like Starlink; space stations such as the ISS; scientific satellites like the Hubble; Earth observation satellites from companies like Planet Labs, Umbra, and HawkEye 360; GPS; miniature CubeSats for education and research; and military/defense satellites.

Loading next visibility...
Identifier
3504, 1968-091A
Orbit
LEO
Country
Flag of CISCIS
Related business
Manufacturer
TSKBM/KB1
Mission
Spacecraft
Bus & Motor
IS, Unknown motor
Mass
1,400 kg wet, ~1,400 kg dry
Launch date (UTC)
1968-10-20 (58 years ago)
Launch vehicle
TSIKLON-2A
Launch site
Tyuratam Missile And Space Complex (TTMTR)
Object type
Payload
Rocket body
Debris
Shape & HBR
CYL + TRUSS, 2.1 m
Radar Cross Section
Large (>1 m²)

Expand to show TLE details & history
Last TLE update: 14 hours ago

TLE from 14 hours ago
0 COSMOS 249
1 03504U 68091A   26207.32167801  .00000418  00000-0  14624-3 0  9994
2 03504  62.3411 173.2055 1012181  29.3523 336.0612 12.97178410725568
Epoch: 2026-07-26T07:43Z
TLE epoch observation values (Epoch: 2026-07-26T07:43:12.980Z)
Latitude
0.00001°
Longitude
113.38014°
Altitude
581.827 km
Speed
7.905 km/s
True Right ascension
11h 32m 49s
True Declination
0° 00' 00"
Sunlit
Object was in daylight at epoch
Visualization orbit readout
Latitude
Unknown
Longitude
Unknown
Altitude
Unknown
Speed
Unknown
Apparent Right ascension
Unknown
Apparent Declination
Unknown
Sunlit
N/A
Visualization observer readout
Local Sidereal Time
10:41:01
Azimuth
Unknown
Elevation
Unknown
Doppler factor
Unknown
Orbital elements
Apogee altitude
2,046.483 km
Perigee altitude
497.791 km
Semi-major axis
7,650.274 km
Eccentricity
0.10122
Inclination
62.3411°
RAAN
173.2055°
Arg. of periapsis
29.3523°
True anomaly
330.75094°
Mean anomaly
336.0612°
Eccentric anomaly
333.4709°
Mean motion
3.2436 °/min
Orbital period
110.99 mins
BSTAR
0.00014624

Documentation

Showing up to 5 results
|